LHA421 BIKF-LOWW

Flight info

Callsign LHA421
Flight time 3h 21m
Altitude 39000
Route OSKUM DCT VALDI DCT DEMIR DCT LUWIL DCT BOLBO/N0475F310 DCT OMELO/N0465F390 DCT EVIKU DCT BITSI DCT MIKOV
Aircraft A359/M-SDE1E2FGIJ1RWYZ/S

Departure

Time 2026-05-04 10:16
Airport Keflavik International Airport (BIKF)

Arrival

Time 2026-05-04 13:37
Airport Vienna International Airport (LOWW)
Time Latitude Longitude Altitude Speed Heading
2026-05-04 09:18 63.99276 -22.62568 171 ft 0 kts 50°
2026-05-04 09:56 63.99273 -22.62575 171 ft 3 kts 51°
2026-05-04 09:57 63.99256 -22.62623 171 ft 4 kts 54°
2026-05-04 09:57 63.99242 -22.62674 171 ft 4 kts 61°
2026-05-04 09:57 63.99231 -22.62730 171 ft 4 kts 78°
2026-05-04 09:57 63.99229 -22.62759 171 ft 1 kts 90°
2026-05-04 09:58 63.99229 -22.62760 171 ft 0 kts 90°
2026-05-04 10:04 63.99171 -22.62205 171 ft 12 kts 94°
2026-05-04 10:04 63.99167 -22.62015 171 ft 9 kts 91°
2026-05-04 10:04 63.99165 -22.61851 171 ft 11 kts 91°
2026-05-04 10:04 63.99163 -22.61661 172 ft 13 kts 91°
2026-05-04 10:05 63.99167 -22.61455 173 ft 13 kts 86°
2026-05-04 10:05 63.99172 -22.61236 174 ft 14 kts 88°
2026-05-04 10:05 63.99172 -22.61064 175 ft 8 kts 91°
2026-05-04 10:05 63.99157 -22.60957 175 ft 7 kts 140°
2026-05-04 10:06 63.99111 -22.60942 174 ft 8 kts 178°
2026-05-04 10:06 63.99041 -22.60938 172 ft 13 kts 179°
2026-05-04 10:06 63.98938 -22.60934 170 ft 17 kts 182°
2026-05-04 10:08 63.98029 -22.60946 155 ft 27 kts 180°
2026-05-04 10:08 63.97832 -22.60948 154 ft 29 kts 180°
2026-05-04 10:08 63.97620 -22.60949 153 ft 31 kts 180°
2026-05-04 10:08 63.97394 -22.60946 151 ft 33 kts 180°
2026-05-04 10:09 63.97157 -22.60944 150 ft 35 kts 180°
2026-05-04 10:09 63.96908 -22.60941 149 ft 37 kts 180°
2026-05-04 10:09 63.96734 -22.60939 147 ft 14 kts 180°
2026-05-04 10:09 63.96627 -22.60939 147 ft 17 kts 180°
2026-05-04 10:10 63.96519 -22.60939 146 ft 2 kts 178°
2026-05-04 10:10 63.96503 -22.60934 146 ft 4 kts 171°
2026-05-04 10:10 63.96475 -22.60907 146 ft 5 kts 143°
2026-05-04 10:10 63.96466 -22.60862 146 ft 3 kts 103°
2026-05-04 10:11 63.96463 -22.60796 146 ft 1 kts 91°
2026-05-04 10:11 63.96463 -22.60795 146 ft 0 kts 91°
2026-05-04 10:11 63.96462 -22.60679 146 ft 11 kts 91°
2026-05-04 10:11 63.96494 -22.60560 145 ft 6 kts 22°
2026-05-04 10:12 63.96511 -22.60556 146 ft 0 kts
2026-05-04 10:13 63.96526 -22.60553 146 ft 17 kts
2026-05-04 10:14 63.96890 -22.60553 149 ft 86 kts 360°
2026-05-04 10:14 63.97692 -22.60545 154 ft 142 kts
2026-05-04 10:16 64.05946 -22.58080 4629 ft 213 kts 50°
2026-05-04 10:16 64.06451 -22.54677 5018 ft 244 kts 82°
2026-05-04 10:16 64.06456 -22.50665 5586 ft 259 kts 88°
2026-05-04 10:16 64.06397 -22.46489 6341 ft 267 kts 88°
2026-05-04 10:17 64.06224 -22.42188 7074 ft 278 kts 99°
2026-05-04 10:17 64.05497 -22.38012 7821 ft 289 kts 116°
2026-05-04 10:19 63.97969 -22.08116 11631 ft 380 kts 118°
2026-05-04 10:19 63.96637 -22.02829 12285 ft 390 kts 119°
2026-05-04 10:19 63.95273 -21.97423 12981 ft 398 kts 119°
2026-05-04 10:19 63.93878 -21.91906 13627 ft 406 kts 120°
2026-05-04 10:20 63.92454 -21.86291 14262 ft 414 kts 120°
2026-05-04 10:20 63.91005 -21.80589 14896 ft 420 kts 120°
2026-05-04 10:20 63.89534 -21.74804 15555 ft 425 kts 120°
2026-05-04 10:20 63.88043 -21.68956 16212 ft 431 kts 120°
2026-05-04 10:21 63.86547 -21.63114 16868 ft 437 kts 120°
2026-05-04 10:21 63.85007 -21.57119 17553 ft 443 kts 120°
2026-05-04 10:21 63.83449 -21.51046 18240 ft 449 kts 120°
2026-05-04 10:21 63.81836 -21.44807 18852 ft 457 kts 120°
2026-05-04 10:22 63.78600 -21.32337 20015 ft 467 kts 120°
2026-05-04 10:22 63.77024 -21.25896 20605 ft 471 kts 114°
2026-05-04 10:22 63.76013 -21.18870 21211 ft 471 kts 97°
2026-05-04 10:23 63.75497 -21.11560 21799 ft 473 kts 94°
2026-05-04 10:23 63.75056 -21.04179 22428 ft 474 kts 94°
2026-05-04 10:25 63.71689 -20.51197 26180 ft 501 kts 95°
2026-05-04 10:25 63.71170 -20.43363 26477 ft 509 kts 95°
2026-05-04 10:25 63.70701 -20.35435 26980 ft 510 kts 92°
2026-05-04 10:25 63.70340 -20.27461 27505 ft 512 kts 91°
2026-05-04 10:26 63.70022 -20.19444 27992 ft 515 kts 91°
2026-05-04 10:26 63.69706 -20.11366 28467 ft 518 kts 91°
2026-05-04 10:26 63.69374 -20.03255 28930 ft 521 kts 91°
2026-05-04 10:26 63.69021 -19.95099 29384 ft 525 kts 92°
2026-05-04 10:27 63.68648 -19.86890 29830 ft 528 kts 92°
2026-05-04 10:27 63.68260 -19.78635 30255 ft 531 kts 92°
2026-05-04 10:27 63.67866 -19.70450 30635 ft 534 kts 93°
2026-05-04 10:27 63.67458 -19.62098 30950 ft 540 kts 92°
2026-05-04 10:28 63.67041 -19.53650 31182 ft 545 kts 92°
2026-05-04 10:28 63.66614 -19.45141 31557 ft 547 kts 93°
2026-05-04 10:28 63.66184 -19.36646 32039 ft 544 kts 93°
2026-05-04 10:28 63.65751 -19.28192 32542 ft 544 kts 94°
2026-05-04 10:29 63.65311 -19.19706 32816 ft 548 kts 94°
2026-05-04 10:29 63.64865 -19.11179 33090 ft 550 kts 94°
2026-05-04 10:29 63.64411 -19.02609 33385 ft 552 kts 94°
2026-05-04 10:29 63.63951 -18.94011 33668 ft 555 kts 94°
2026-05-04 10:30 63.63485 -18.85396 33896 ft 557 kts 94°
2026-05-04 10:30 63.63011 -18.76721 34123 ft 561 kts 94°
2026-05-04 10:30 63.62527 -18.67960 34192 ft 566 kts 94°
2026-05-04 10:30 63.62035 -18.59191 34535 ft 564 kts 95°
2026-05-04 10:31 63.61539 -18.50463 34992 ft 560 kts 95°
2026-05-04 10:31 63.61041 -18.41810 35393 ft 557 kts 95°
2026-05-04 10:32 63.57974 -17.90188 36297 ft 557 kts 96°
2026-05-04 10:33 63.56905 -17.72906 36290 ft 560 kts 96°
2026-05-04 10:33 63.55818 -17.55709 36289 ft 560 kts 96°
2026-05-04 10:34 63.54803 -17.39944 36290 ft 560 kts 96°
2026-05-04 10:34 63.53670 -17.22666 36291 ft 560 kts 96°
2026-05-04 10:35 63.52517 -17.05402 36328 ft 560 kts 97°
2026-05-04 10:35 63.51341 -16.88126 36324 ft 561 kts 97°
2026-05-04 10:36 63.50203 -16.71702 36326 ft 561 kts 97°
2026-05-04 10:36 63.48984 -16.54419 36321 ft 561 kts 97°
2026-05-04 10:37 63.47745 -16.37169 36323 ft 561 kts 97°
2026-05-04 10:37 63.46486 -16.19933 36325 ft 561 kts 97°
2026-05-04 10:39 63.42609 -15.68669 38013 ft 550 kts 98°
2026-05-04 10:39 63.41955 -15.60259 38313 ft 549 kts 98°
2026-05-04 10:39 63.41297 -15.51875 38569 ft 548 kts 98°
2026-05-04 10:40 63.40636 -15.43504 38846 ft 546 kts 98°
2026-05-04 10:40 63.39972 -15.35170 39044 ft 545 kts 98°
2026-05-04 10:40 63.39303 -15.26829 39075 ft 548 kts 98°
2026-05-04 10:41 63.37946 -15.10111 39085 ft 548 kts 98°
2026-05-04 10:41 63.36569 -14.93414 39082 ft 548 kts 98°
2026-05-04 10:42 63.35172 -14.76720 39082 ft 548 kts 99°
2026-05-04 10:42 63.33755 -14.60048 39099 ft 548 kts 99°
2026-05-04 10:43 63.32331 -14.43531 39080 ft 546 kts 99°
2026-05-04 10:45 63.26410 -13.77238 39100 ft 546 kts 100°
2026-05-04 10:45 63.24893 -13.60828 39074 ft 545 kts 100°
2026-05-04 10:46 63.23349 -13.44353 39077 ft 545 kts 100°
2026-05-04 10:46 63.21787 -13.27906 39072 ft 545 kts 100°
2026-05-04 10:47 63.20205 -13.11462 39066 ft 545 kts 100°
2026-05-04 10:47 63.18604 -12.95040 39098 ft 545 kts 101°
2026-05-04 10:49 63.12018 -12.29605 39062 ft 545 kts 101°
2026-05-04 10:50 63.10323 -12.13273 39086 ft 545 kts 101°
2026-05-04 10:52 63.03366 -11.48249 39053 ft 544 kts 102°
2026-05-04 10:52 63.01581 -11.32050 39075 ft 544 kts 102°
2026-05-04 10:54 62.94282 -10.67665 39046 ft 543 kts 103°
2026-05-04 10:56 62.86676 -10.03488 39043 ft 543 kts 103°
2026-05-04 10:57 62.84729 -9.87495 39035 ft 543 kts 104°
2026-05-04 10:57 62.82764 -9.71525 39063 ft 544 kts 104°
2026-05-04 10:58 62.80780 -9.55560 39029 ft 544 kts 104°
2026-05-04 10:58 62.78775 -9.39600 39033 ft 545 kts 104°
2026-05-04 10:59 62.76752 -9.23663 39024 ft 545 kts 104°
2026-05-04 10:59 62.74707 -9.07725 39021 ft 545 kts 105°
2026-05-04 11:00 62.72670 -8.91999 39049 ft 545 kts 105°
2026-05-04 11:02 62.64258 -8.28666 39015 ft 545 kts 105°
2026-05-04 11:05 62.47753 -7.11115 38997 ft 544 kts 107°
2026-05-04 11:06 62.45475 -6.95526 38987 ft 544 kts 107°
2026-05-04 11:06 62.43181 -6.79961 38991 ft 544 kts 107°
2026-05-04 11:10 62.27248 -5.75564 39016 ft 545 kts 109°
2026-05-04 11:12 62.18357 -5.19883 38993 ft 544 kts 109°
2026-05-04 11:12 62.15957 -5.05142 39007 ft 544 kts 110°
2026-05-04 11:13 62.13505 -4.90204 38964 ft 544 kts 110°
2026-05-04 11:13 62.11040 -4.75305 38995 ft 544 kts 110°
2026-05-04 11:14 62.10622 -4.72792 38994 ft 544 kts 110°
2026-05-04 11:16 61.98380 -4.00635 38989 ft 543 kts 111°
2026-05-04 11:16 61.95765 -3.85576 38988 ft 543 kts 111°
2026-05-04 11:17 61.93132 -3.70532 38983 ft 543 kts 111°
2026-05-04 11:19 61.82432 -3.10598 38978 ft 544 kts 112°
2026-05-04 11:19 61.79715 -2.95673 38977 ft 544 kts 112°
2026-05-04 11:20 61.76983 -2.80777 38987 ft 544 kts 112°
2026-05-04 11:20 61.74233 -2.65901 38974 ft 544 kts 112°
2026-05-04 11:22 61.63096 -2.06785 38966 ft 544 kts 113°
2026-05-04 11:23 61.60264 -1.92029 38967 ft 544 kts 113°
2026-05-04 11:25 61.50228 -1.40602 38962 ft 544 kts 114°
2026-05-04 11:25 61.47326 -1.25978 38955 ft 544 kts 114°
2026-05-04 11:27 61.34064 -0.60445 38943 ft 544 kts 115°
2026-05-04 11:28 61.31075 -0.45961 38936 ft 544 kts 115°
2026-05-04 11:28 61.28070 -0.31500 38940 ft 544 kts 115°
2026-05-04 11:29 61.25053 -0.17085 38944 ft 544 kts 115°
2026-05-04 11:29 61.21808 -0.03035 38944 ft 541 kts 125°
2026-05-04 11:31 61.03519 0.35161 38900 ft 534 kts 141°
2026-05-04 11:33 60.84515 0.71706 38938 ft 534 kts 141°
2026-05-04 11:33 60.79073 0.82072 38931 ft 534 kts 141°
2026-05-04 11:34 60.73624 0.92401 38908 ft 534 kts 142°
2026-05-04 11:34 60.68170 1.02690 38933 ft 533 kts 142°
2026-05-04 11:35 60.62746 1.12872 38931 ft 533 kts 142°
2026-05-04 11:35 60.57285 1.23076 38931 ft 533 kts 142°
2026-05-04 11:36 60.51811 1.33253 38927 ft 533 kts 142°
2026-05-04 11:36 60.46327 1.43400 38925 ft 534 kts 142°
2026-05-04 11:37 60.40827 1.53529 38922 ft 534 kts 142°
2026-05-04 11:37 60.35330 1.63604 38923 ft 533 kts 142°
2026-05-04 11:38 60.29831 1.73636 38922 ft 533 kts 142°
2026-05-04 11:38 60.24320 1.83640 38922 ft 533 kts 142°
2026-05-04 11:39 60.18806 1.93605 38917 ft 533 kts 142°
2026-05-04 11:41 59.99510 2.28107 38909 ft 530 kts 143°
2026-05-04 11:41 59.94027 2.37808 38905 ft 530 kts 143°
2026-05-04 11:42 59.88497 2.47548 38899 ft 530 kts 143°
2026-05-04 11:42 59.82968 2.57240 38887 ft 528 kts 143°
2026-05-04 11:43 59.77465 2.66848 38893 ft 526 kts 143°
2026-05-04 11:43 59.71958 2.76412 38888 ft 526 kts 143°
2026-05-04 11:44 59.66447 2.85940 38884 ft 526 kts 143°
2026-05-04 11:44 59.60925 2.95446 38892 ft 526 kts 143°
2026-05-04 11:45 59.55400 3.04913 38875 ft 526 kts 143°
2026-05-04 11:45 59.49875 3.14339 38890 ft 525 kts 143°
2026-05-04 11:46 59.44355 3.23715 38894 ft 524 kts 143°
2026-05-04 11:46 59.38819 3.33073 38893 ft 525 kts 143°
2026-05-04 11:47 59.33279 3.42397 38881 ft 525 kts 143°
2026-05-04 11:47 59.27728 3.51700 38898 ft 525 kts 143°
2026-05-04 11:48 59.22188 3.60942 38898 ft 522 kts 143°
2026-05-04 11:48 59.16669 3.70110 38906 ft 520 kts 143°
2026-05-04 11:49 59.11150 3.79236 38903 ft 520 kts 143°
2026-05-04 11:49 59.05618 3.88341 38912 ft 520 kts 144°
2026-05-04 11:50 59.00108 3.97374 38911 ft 519 kts 144°
2026-05-04 11:50 58.94587 4.06382 38904 ft 518 kts 144°
2026-05-04 11:51 58.89087 4.15323 38918 ft 516 kts 144°
2026-05-04 11:51 58.83586 4.24224 38916 ft 515 kts 144°
2026-05-04 11:52 58.78119 4.33031 38915 ft 515 kts 144°
2026-05-04 11:52 58.72608 4.41871 38917 ft 515 kts 144°
2026-05-04 11:53 58.67092 4.50683 38927 ft 516 kts 144°
2026-05-04 11:53 58.61571 4.59466 38930 ft 515 kts 144°
2026-05-04 11:55 58.39428 4.94319 38933 ft 515 kts 144°
2026-05-04 11:56 58.33886 5.02950 38936 ft 514 kts 144°
2026-05-04 11:56 58.28340 5.11554 38938 ft 514 kts 144°
2026-05-04 11:57 58.22793 5.20120 38940 ft 514 kts 145°
2026-05-04 11:57 58.17234 5.28671 38938 ft 514 kts 145°
2026-05-04 11:58 58.11675 5.37187 38943 ft 514 kts 145°
2026-05-04 11:58 58.07054 5.44238 38924 ft 514 kts 145°
2026-05-04 11:59 58.01497 5.52687 38951 ft 512 kts 145°
2026-05-04 11:59 57.95951 5.61084 38952 ft 511 kts 145°
2026-05-04 12:00 57.90402 5.69450 38952 ft 511 kts 145°
2026-05-04 12:00 57.84846 5.77794 38955 ft 511 kts 145°
2026-05-04 12:01 57.79284 5.86111 38952 ft 511 kts 145°
2026-05-04 12:02 57.59816 6.14963 38960 ft 511 kts 145°
2026-05-04 12:03 57.54230 6.23168 38966 ft 511 kts 145°
2026-05-04 12:03 57.48640 6.31345 38937 ft 511 kts 145°
2026-05-04 12:04 57.43091 6.39429 38963 ft 510 kts 145°
2026-05-04 12:04 57.37521 6.47513 38964 ft 510 kts 145°
2026-05-04 12:05 57.31930 6.55595 38963 ft 510 kts 145°
2026-05-04 12:05 57.26337 6.63647 38966 ft 510 kts 145°
2026-05-04 12:06 57.20737 6.71677 38964 ft 510 kts 146°
2026-05-04 12:06 57.15139 6.79673 38969 ft 508 kts 145°
2026-05-04 12:07 57.09555 6.87619 38967 ft 507 kts 145°
2026-05-04 12:07 57.03974 6.95529 38970 ft 507 kts 145°
2026-05-04 12:08 56.98382 7.03423 38974 ft 507 kts 145°
2026-05-04 12:08 56.92789 7.11288 38975 ft 506 kts 146°
2026-05-04 12:09 56.87199 7.19119 38975 ft 505 kts 146°
2026-05-04 12:09 56.81624 7.26900 38977 ft 504 kts 146°
2026-05-04 12:10 56.76049 7.34648 38978 ft 504 kts 146°
2026-05-04 12:10 56.70477 7.42363 38986 ft 504 kts 146°
2026-05-04 12:11 56.64891 7.50068 38976 ft 504 kts 146°
2026-05-04 12:11 56.59298 7.57756 38965 ft 504 kts 146°
2026-05-04 12:12 56.53708 7.65409 38980 ft 504 kts 146°
2026-05-04 12:12 56.48109 7.73045 38988 ft 503 kts 146°
2026-05-04 12:14 56.25697 8.03325 38976 ft 502 kts 146°
2026-05-04 12:15 56.20100 8.10818 38988 ft 502 kts 147°
2026-05-04 12:15 56.14498 8.18286 38991 ft 501 kts 147°
2026-05-04 12:16 56.08933 8.25679 38981 ft 501 kts 147°
2026-05-04 12:16 56.03325 8.33101 38982 ft 501 kts 147°
2026-05-04 12:17 55.97720 8.40493 38969 ft 501 kts 147°
2026-05-04 12:17 55.92114 8.47859 38985 ft 500 kts 147°
2026-05-04 12:18 55.86502 8.55206 38982 ft 500 kts 147°
2026-05-04 12:18 55.80894 8.62520 38975 ft 500 kts 147°
2026-05-04 12:19 55.75278 8.69818 38983 ft 500 kts 147°
2026-05-04 12:19 55.69650 8.77105 38979 ft 500 kts 147°
2026-05-04 12:20 55.64023 8.84365 38985 ft 500 kts 147°
2026-05-04 12:20 55.58393 8.91601 38985 ft 500 kts 148°
2026-05-04 12:21 55.52756 8.98821 38979 ft 500 kts 148°
2026-05-04 12:21 55.47117 9.06017 38987 ft 501 kts 148°
2026-05-04 12:22 55.41472 9.13195 38988 ft 500 kts 148°
2026-05-04 12:22 55.35825 9.20349 38991 ft 500 kts 148°
2026-05-04 12:23 55.30176 9.27481 38993 ft 500 kts 148°
2026-05-04 12:23 55.24562 9.34542 38993 ft 500 kts 148°
2026-05-04 12:24 55.18869 9.41678 38969 ft 500 kts 148°
2026-05-04 12:24 55.13202 9.48756 38979 ft 500 kts 148°
2026-05-04 12:25 55.07576 9.55758 38987 ft 500 kts 148°
2026-05-04 12:25 55.01913 9.62782 38991 ft 500 kts 148°
2026-05-04 12:26 54.96241 9.69790 38992 ft 500 kts 148°
2026-05-04 12:26 54.90571 9.76773 38993 ft 499 kts 148°
2026-05-04 12:27 54.84894 9.83737 38979 ft 499 kts 148°
2026-05-04 12:27 54.79202 9.90625 38980 ft 499 kts 149°
2026-05-04 12:28 54.73461 9.97378 38982 ft 499 kts 149°
2026-05-04 12:28 54.67718 10.04104 38982 ft 499 kts 149°
2026-05-04 12:29 54.61978 10.10831 38985 ft 499 kts 149°
2026-05-04 12:29 54.56245 10.17538 38987 ft 498 kts 149°
2026-05-04 12:30 54.50513 10.24225 38992 ft 497 kts 149°
2026-05-04 12:30 54.44792 10.30874 38993 ft 496 kts 149°
2026-05-04 12:31 54.39061 10.37511 38971 ft 496 kts 149°
2026-05-04 12:31 54.33336 10.44118 38975 ft 496 kts 149°
2026-05-04 12:32 54.24776 10.53956 38971 ft 496 kts 149°
2026-05-04 12:33 54.19048 10.60511 38976 ft 495 kts 149°
2026-05-04 12:33 54.13319 10.67045 38970 ft 495 kts 150°
2026-05-04 12:34 54.07600 10.73545 38976 ft 494 kts 150°
2026-05-04 12:34 54.01875 10.80030 38981 ft 494 kts 150°
2026-05-04 12:35 53.96149 10.86494 38978 ft 495 kts 150°
2026-05-04 12:35 53.90409 10.92952 38997 ft 495 kts 150°
2026-05-04 12:36 53.84674 10.99386 38997 ft 495 kts 150°
2026-05-04 12:36 53.78924 11.05812 38982 ft 495 kts 150°
2026-05-04 12:37 53.73180 11.12211 38976 ft 495 kts 150°
2026-05-04 12:37 53.67422 11.18602 38968 ft 496 kts 150°
2026-05-04 12:38 53.61648 11.24992 38965 ft 496 kts 150°
2026-05-04 12:38 53.55872 11.31363 38957 ft 496 kts 150°
2026-05-04 12:39 53.50130 11.37677 38950 ft 496 kts 150°
2026-05-04 12:39 53.44351 11.44011 38930 ft 496 kts 150°
2026-05-04 12:40 53.38567 11.50318 38952 ft 495 kts 151°
2026-05-04 12:40 53.32776 11.56566 38951 ft 495 kts 151°
2026-05-04 12:41 53.26980 11.62796 38953 ft 495 kts 151°
2026-05-04 12:41 53.21185 11.69011 38951 ft 495 kts 151°
2026-05-04 12:42 53.15384 11.75217 38943 ft 495 kts 152°
2026-05-04 12:42 53.09592 11.81396 38948 ft 494 kts 152°
2026-05-04 12:43 53.03803 11.87550 38964 ft 494 kts 152°
2026-05-04 12:43 52.98014 11.93683 38965 ft 493 kts 152°
2026-05-04 12:44 52.92226 11.99794 38953 ft 493 kts 152°
2026-05-04 12:44 52.86431 12.05894 38950 ft 493 kts 152°
2026-05-04 12:45 52.80637 12.11974 38956 ft 493 kts 152°
2026-05-04 12:45 52.74834 12.18044 38960 ft 493 kts 152°
2026-05-04 12:46 52.69030 12.24095 38957 ft 493 kts 152°
2026-05-04 12:46 52.63233 12.30121 38953 ft 493 kts 152°
2026-05-04 12:47 52.57429 12.36134 38950 ft 492 kts 152°
2026-05-04 12:47 52.51635 12.42118 38953 ft 492 kts 152°
2026-05-04 12:48 52.46821 12.47075 38950 ft 491 kts 152°
2026-05-04 12:48 52.41027 12.53023 38943 ft 492 kts 152°
2026-05-04 12:49 52.35231 12.58955 38943 ft 491 kts 152°
2026-05-04 12:49 52.29433 12.64872 38946 ft 491 kts 152°
2026-05-04 12:50 52.23647 12.70759 38944 ft 490 kts 152°
2026-05-04 12:50 52.17861 12.76626 38942 ft 490 kts 152°
2026-05-04 12:51 52.12072 12.82476 38948 ft 490 kts 152°
2026-05-04 12:51 52.06272 12.88322 38945 ft 490 kts 152°
2026-05-04 12:52 52.00499 12.94123 38944 ft 487 kts 153°
2026-05-04 12:52 51.94730 12.99902 38947 ft 487 kts 153°
2026-05-04 12:53 51.89003 13.05620 38949 ft 487 kts 153°
2026-05-04 12:53 51.83240 13.11356 38953 ft 487 kts 153°
2026-05-04 12:54 51.77463 13.17063 38954 ft 486 kts 154°
2026-05-04 12:54 51.71594 13.22422 38964 ft 484 kts 155°
2026-05-04 12:55 51.65692 13.27650 38964 ft 484 kts 155°
2026-05-04 12:55 51.59795 13.32911 38961 ft 484 kts 155°
2026-05-04 12:56 51.53909 13.38194 38958 ft 484 kts 155°
2026-05-04 12:56 51.48027 13.43472 38960 ft 485 kts 155°
2026-05-04 12:57 51.42142 13.48737 38961 ft 484 kts 155°
2026-05-04 12:57 51.36255 13.53985 38963 ft 484 kts 155°
2026-05-04 12:58 51.30379 13.59208 38982 ft 483 kts 155°
2026-05-04 12:58 51.24498 13.64418 38978 ft 483 kts 155°
2026-05-04 12:59 51.18623 13.69608 38993 ft 483 kts 155°
2026-05-04 12:59 51.12740 13.74791 38994 ft 483 kts 155°
2026-05-04 13:00 51.07898 13.79045 38991 ft 483 kts 155°
2026-05-04 13:00 51.02011 13.84202 38991 ft 483 kts 155°
2026-05-04 13:01 50.96124 13.89346 38986 ft 483 kts 155°
2026-05-04 13:01 50.90276 13.94441 38981 ft 482 kts 155°
2026-05-04 13:02 50.84456 13.99756 38980 ft 486 kts 148°
2026-05-04 13:02 50.79225 14.06584 38976 ft 489 kts 142°
2026-05-04 13:03 50.74187 14.13834 38973 ft 490 kts 141°
2026-05-04 13:03 50.69176 14.21130 38973 ft 490 kts 140°
2026-05-04 13:04 50.64155 14.28377 38979 ft 489 kts 141°
2026-05-04 13:04 50.59123 14.35585 38974 ft 489 kts 141°
2026-05-04 13:05 50.54081 14.42774 38979 ft 489 kts 141°
2026-05-04 13:05 50.49042 14.49938 38987 ft 489 kts 141°
2026-05-04 13:06 50.44005 14.57127 38987 ft 490 kts 140°
2026-05-04 13:06 50.39098 14.64574 38983 ft 491 kts 138°
2026-05-04 13:07 50.34231 14.72060 38988 ft 490 kts 139°
2026-05-04 13:07 50.29339 14.79500 38990 ft 490 kts 139°
2026-05-04 13:08 50.24433 14.86891 38981 ft 490 kts 139°
2026-05-04 13:08 50.19515 14.94265 38987 ft 490 kts 139°
2026-05-04 13:09 50.14595 15.01619 38986 ft 490 kts 139°
2026-05-04 13:09 50.09703 15.08913 38927 ft 489 kts 139°
2026-05-04 13:09 50.07214 15.12616 38705 ft 489 kts 139°
2026-05-04 13:10 50.04784 15.16227 38451 ft 489 kts 139°
2026-05-04 13:10 50.02284 15.19935 38153 ft 490 kts 139°
2026-05-04 13:10 49.99813 15.23593 37864 ft 492 kts 139°
2026-05-04 13:10 49.97364 15.27215 37590 ft 493 kts 139°
2026-05-04 13:11 49.94879 15.30884 37301 ft 494 kts 139°
2026-05-04 13:11 49.92384 15.34562 37031 ft 495 kts 139°
2026-05-04 13:11 49.89885 15.38242 36757 ft 495 kts 139°
2026-05-04 13:11 49.87388 15.41913 36482 ft 496 kts 139°
2026-05-04 13:12 49.84892 15.45579 35903 ft 494 kts 139°
2026-05-04 13:12 49.82416 15.49212 35014 ft 485 kts 139°
2026-05-04 13:12 49.79992 15.52765 34243 ft 475 kts 139°
2026-05-04 13:12 49.77608 15.56252 33593 ft 471 kts 139°
2026-05-04 13:13 49.75224 15.59728 33093 ft 469 kts 139°
2026-05-04 13:13 49.72849 15.63186 32566 ft 469 kts 139°
2026-05-04 13:13 49.70482 15.66630 32072 ft 465 kts 139°
2026-05-04 13:13 49.68132 15.70044 31555 ft 462 kts 139°
2026-05-04 13:14 49.65806 15.73420 31044 ft 458 kts 139°
2026-05-04 13:14 49.63489 15.76778 30548 ft 455 kts 139°
2026-05-04 13:14 49.61190 15.80105 30034 ft 452 kts 139°
2026-05-04 13:14 49.58904 15.83411 29510 ft 448 kts 139°
2026-05-04 13:15 49.56641 15.86681 29013 ft 444 kts 139°
2026-05-04 13:15 49.54400 15.89914 28508 ft 439 kts 138°
2026-05-04 13:15 49.52180 15.93110 28046 ft 435 kts 138°
2026-05-04 13:15 49.49980 15.96274 27582 ft 431 kts 138°
2026-05-04 13:16 49.47785 15.99422 26872 ft 433 kts 139°
2026-05-04 13:16 49.45586 16.02572 26299 ft 432 kts 139°
2026-05-04 13:16 49.43398 16.05703 25803 ft 428 kts 139°
2026-05-04 13:16 49.41224 16.08811 25296 ft 425 kts 139°
2026-05-04 13:17 49.39065 16.11897 24813 ft 422 kts 139°
2026-05-04 13:17 49.36923 16.14954 24312 ft 420 kts 139°
2026-05-04 13:17 49.34792 16.17991 23834 ft 417 kts 139°
2026-05-04 13:17 49.32670 16.21003 23290 ft 414 kts 139°
2026-05-04 13:18 49.30391 16.23619 22826 ft 406 kts 151°
2026-05-04 13:18 49.27929 16.25679 22345 ft 400 kts 155°
2026-05-04 13:18 49.25457 16.27572 21860 ft 395 kts 156°
2026-05-04 13:18 49.23010 16.29409 21384 ft 390 kts 156°
2026-05-04 13:19 49.20649 16.31168 20961 ft 386 kts 156°
2026-05-04 13:19 49.18248 16.32950 20501 ft 382 kts 157°
2026-05-04 13:19 49.15868 16.34713 20008 ft 378 kts 157°
2026-05-04 13:19 49.13513 16.36453 19534 ft 374 kts 157°
2026-05-04 13:20 49.11181 16.38173 19081 ft 371 kts 158°
2026-05-04 13:20 49.08868 16.39876 18610 ft 367 kts 158°
2026-05-04 13:20 49.06582 16.41560 18133 ft 363 kts 158°
2026-05-04 13:20 49.04322 16.43221 17650 ft 358 kts 158°
2026-05-04 13:21 49.02091 16.44858 17198 ft 354 kts 158°
2026-05-04 13:21 48.99891 16.46473 16755 ft 348 kts 158°
2026-05-04 13:21 48.97722 16.48062 16312 ft 344 kts 157°
2026-05-04 13:21 48.95616 16.49604 15893 ft 342 kts 158°
2026-05-04 13:22 48.93504 16.51147 15467 ft 339 kts 158°
2026-05-04 13:22 48.91385 16.52695 15040 ft 337 kts 158°
2026-05-04 13:22 48.89277 16.54235 14609 ft 335 kts 158°
2026-05-04 13:22 48.87184 16.55761 14199 ft 333 kts 158°
2026-05-04 13:23 48.85130 16.57259 13746 ft 331 kts 157°
2026-05-04 13:23 48.83034 16.58785 13297 ft 329 kts 157°
2026-05-04 13:23 48.81005 16.60260 12882 ft 327 kts 157°
2026-05-04 13:23 48.78946 16.61698 12448 ft 324 kts 161°
2026-05-04 13:24 48.76772 16.62683 12022 ft 320 kts 169°
2026-05-04 13:24 48.74643 16.63341 11733 ft 309 kts 174°
2026-05-04 13:24 48.72549 16.63458 11269 ft 290 kts 187°
2026-05-04 13:25 48.69018 16.61275 10411 ft 273 kts 216°
2026-05-04 13:25 48.67523 16.59554 10111 ft 268 kts 218°
2026-05-04 13:25 48.66078 16.57820 9809 ft 265 kts 218°
2026-05-04 13:25 48.64618 16.56053 9484 ft 272 kts 218°
2026-05-04 13:26 48.63141 16.54262 9112 ft 271 kts 219°
2026-05-04 13:26 48.61672 16.52483 8925 ft 271 kts 219°
2026-05-04 13:26 48.60198 16.50692 8659 ft 272 kts 219°
2026-05-04 13:26 48.58731 16.48912 8354 ft 269 kts 218°
2026-05-04 13:27 48.57276 16.47150 8072 ft 268 kts 218°
2026-05-04 13:27 48.55826 16.45392 7792 ft 266 kts 218°
2026-05-04 13:27 48.54388 16.43654 7490 ft 265 kts 218°
2026-05-04 13:27 48.52845 16.42123 7168 ft 266 kts 205°
2026-05-04 13:28 48.51048 16.41661 6852 ft 267 kts 176°
2026-05-04 13:28 48.49198 16.41981 6610 ft 264 kts 173°
2026-05-04 13:28 48.47439 16.42528 6540 ft 253 kts 167°
2026-05-04 13:28 48.45811 16.43275 6533 ft 237 kts 163°
2026-05-04 13:29 48.44304 16.44039 6542 ft 220 kts 165°
2026-05-04 13:29 48.42887 16.44658 6547 ft 207 kts 167°
2026-05-04 13:29 48.41541 16.45214 6544 ft 192 kts 166°
2026-05-04 13:29 48.40294 16.45746 6412 ft 183 kts 166°
2026-05-04 13:30 48.39077 16.46273 6189 ft 181 kts 166°
2026-05-04 13:30 48.37860 16.46791 5877 ft 183 kts 167°
2026-05-04 13:30 48.36628 16.47315 5563 ft 185 kts 167°
2026-05-04 13:30 48.35399 16.47843 5271 ft 182 kts 165°
2026-05-04 13:31 48.34193 16.48362 5004 ft 179 kts 166°
2026-05-04 13:31 48.33010 16.48864 4794 ft 175 kts 165°
2026-05-04 13:31 48.31861 16.49356 4553 ft 169 kts 164°
2026-05-04 13:31 48.30748 16.49832 4320 ft 163 kts 164°
2026-05-04 13:32 48.29681 16.50287 4134 ft 156 kts 164°
2026-05-04 13:32 48.28651 16.50727 3938 ft 151 kts 164°
2026-05-04 13:32 48.27656 16.51153 3746 ft 146 kts 166°
2026-05-04 13:32 48.26688 16.51565 3553 ft 143 kts 166°
2026-05-04 13:33 48.25741 16.51969 3368 ft 140 kts 166°
2026-05-04 13:33 48.24812 16.52364 3180 ft 137 kts 165°
2026-05-04 13:33 48.23904 16.52751 3010 ft 135 kts 165°
2026-05-04 13:33 48.23007 16.53133 2826 ft 134 kts 165°
2026-05-04 13:34 48.22118 16.53512 2656 ft 132 kts 165°
2026-05-04 13:34 48.21240 16.53885 2488 ft 131 kts 165°
2026-05-04 13:34 48.20375 16.54253 2323 ft 127 kts 165°
2026-05-04 13:34 48.19545 16.54606 2150 ft 122 kts 164°
2026-05-04 13:35 48.18727 16.54954 1995 ft 121 kts 164°
2026-05-04 13:35 48.17142 16.55627 1691 ft 117 kts 164°
2026-05-04 13:35 48.16363 16.55959 1522 ft 119 kts 166°
2026-05-04 13:36 48.15556 16.56299 1370 ft 122 kts 165°
2026-05-04 13:36 48.15005 16.56533 1272 ft 122 kts 164°
2026-05-04 13:36 48.14182 16.56885 1065 ft 122 kts 163°
2026-05-04 13:36 48.13359 16.57232 929 ft 124 kts 162°
2026-05-04 13:37 48.12522 16.57594 768 ft 123 kts 161°
2026-05-04 13:37 48.11409 16.58067 620 ft 117 kts 165°
2026-05-04 13:37 48.10961 16.58256 623 ft 80 kts 163°
2026-05-04 13:37 48.10617 16.58400 630 ft 23 kts 165°
2026-05-04 13:38 48.10472 16.58461 623 ft 22 kts 164°
2026-05-04 13:38 48.10332 16.58471 626 ft 19 kts 191°
2026-05-04 13:38 48.10212 16.58435 625 ft 6 kts 193°
2026-05-04 13:38 48.10211 16.58435 625 ft 0 kts 193°
2026-05-04 13:39 48.10168 16.58418 627 ft 10 kts 197°
2026-05-04 13:39 48.10125 16.58365 630 ft 6 kts 248°
2026-05-04 13:39 48.10137 16.58329 633 ft 3 kts 320°
2026-05-04 13:39 48.10166 16.58307 633 ft 6 kts 339°
2026-05-04 13:40 48.10216 16.58282 633 ft 9 kts 342°
2026-05-04 13:40 48.10295 16.58252 626 ft 14 kts 344°
2026-05-04 13:40 48.10401 16.58200 627 ft 17 kts 342°
2026-05-04 13:40 48.10518 16.58145 630 ft 19 kts 343°
2026-05-04 13:41 48.10653 16.58089 629 ft 22 kts 345°
2026-05-04 13:41 48.10807 16.58029 626 ft 24 kts 347°
2026-05-04 13:41 48.10980 16.57961 627 ft 26 kts 344°
2026-05-04 13:42 48.11109 16.57865 626 ft 7 kts 306°
2026-05-04 13:42 48.11128 16.57808 628 ft 5 kts 291°
2026-05-04 13:42 48.11140 16.57765 626 ft 4 kts 291°
2026-05-04 13:42 48.11149 16.57731 629 ft 3 kts 291°
2026-05-04 13:43 48.11157 16.57699 632 ft 4 kts 291°
2026-05-04 13:43 48.11168 16.57657 626 ft 5 kts 292°
2026-05-04 13:43 48.11188 16.57600 634 ft 8 kts 299°
2026-05-04 13:43 48.11219 16.57517 634 ft 10 kts 298°
2026-05-04 13:44 48.11255 16.57416 635 ft 11 kts 296°
2026-05-04 13:44 48.11309 16.57338 631 ft 12 kts 356°
2026-05-04 13:44 48.11391 16.57381 633 ft 15 kts 21°
2026-05-04 13:44 48.11455 16.57305 631 ft 13 kts 296°
2026-05-04 13:45 48.11501 16.57189 623 ft 11 kts 324°
2026-05-04 13:45 48.11516 16.57192 623 ft 1 kts 31°
2026-05-04 13:45 48.11548 16.57221 626 ft 4 kts 26°
2026-05-04 13:45 48.11558 16.57228 625 ft 4 kts 26°
2026-05-04 13:46 48.11576 16.57241 627 ft 0 kts 24°